Fairchild AFB, WA

9:33 PM PST on February 24, 2017 (GMT -0800)
Fairchild Air Force Base

Weather History for KSKA - November, 2013

Change the Weather History Date:

Friday, November 1, 2013

  Actual Average Record
Temperature  
Mean Temperature 40 °F -  
Max Temperature 51 °F 45 °F 56 °F (2008)
Min Temperature 30 °F 28 °F 12 °F (2002)
Degree Days  
Heating Degree Days 24    
Moisture  
Dew Point 34 °F    
Average Humidity 96    
Maximum Humidity 100    
Minimum Humidity 61    
Precipitation  
Precipitation 0.00 in - - ()
Sea Level Pressure  
Sea Level Pressure 30.21 in    
Wind  
Wind Speed 4 mph (SSE)    
Max Wind Speed 9 mph    
Max Gust Speed -    
Visibility 4 miles    
Events Fog , Rain    
Averages and records for this station are not official NWS values.
T = Trace of Precipitation, MM = Missing Value Source: NWS Daily Summary

Daily Weather History Graph

Daily Weather History Graph

Search for Another Location

Airport or City:

Trip Planner

Search our weather history database for the weather conditions in past years. The results will help you decide how hot, cold, wet, or windy it might be!

Date:

Astronomy

Nov. 01, 2013 Rise Set
Actual Time 7:35 AM PDT 5:32 PM PDT
Civil Twilight 7:02 AM PDT 6:04 PM PDT
Nautical Twilight 6:26 AM PDT 6:41 PM PDT
Astronomical Twilight 5:50 AM PDT 7:16 PM PDT
Moon 5:25 AM PDT (11/1) 4:33 PM PDT (11/1)
Length of Visible Light 11h 01m
Length of Day
9h 57m
Waning Crescent, 4% of the Moon is Illuminated
Nov 1
Waning Crescent
Nov 3
New
Nov 9
First Quarter
Nov 17
Full
Nov 25
Last Quarter

Hourly Weather History & Observations

Time (PDT) Temp. Windchill Dew Point Humidity Pressure Visibility Wind Dir Wind Speed Gust Speed Precip Events Conditions
12:17 AM 33.8 °F - 32.0 °F 93% 30.14 in 10.0 mi Variable 1.2 mph - N/A   Clear
12:26 AM 35.6 °F - 32.0 °F 87% 30.14 in 10.0 mi SSE 2.3 mph - N/A   Clear
12:58 AM 35.4 °F 32.6 °F 33.1 °F 91% 30.19 in 10.0 mi SSW 3.5 mph - 0.00 in   Clear
1:36 AM 33.8 °F 28.6 °F 32.0 °F 93% 30.15 in 10.0 mi SSE 5.8 mph - N/A   Clear
1:45 AM 30.2 °F 25.4 °F 28.4 °F 93% 30.15 in 10.0 mi SSE 4.6 mph - N/A   Clear
1:58 AM 31.6 °F 24.4 °F 30.0 °F 94% 30.19 in 10.0 mi SSE 8.1 mph - 0.00 in   Clear
2:07 AM 32.0 °F 24.8 °F 32.0 °F 100% 30.15 in 10.0 mi South 8.1 mph - N/A   Clear
2:32 AM 32.0 °F 24.2 °F 32.0 °F 100% 30.16 in 10.0 mi South 9.2 mph - N/A   Clear
2:58 AM 31.3 °F 24.7 °F 30.6 °F 97% 30.21 in 10.0 mi South 6.9 mph - 0.00 in   Clear
3:28 AM 30.2 °F 22.6 °F 30.2 °F 100% 30.17 in 10.0 mi South 8.1 mph - N/A   Clear
3:37 AM 32.0 °F 26.4 °F 30.2 °F 93% 30.18 in 10.0 mi South 5.8 mph - N/A   Clear
3:58 AM 30.4 °F 25.6 °F 30.0 °F 99% 30.22 in 10.0 mi South 4.6 mph - 0.00 in   Clear
4:58 AM 30.2 °F 25.4 °F 29.7 °F 98% 30.23 in 10.0 mi South 4.6 mph - N/A   Clear
5:56 AM 32.0 °F - 32.0 °F 100% 30.20 in 1.8 mi ESE 2.3 mph - N/A   Overcast
5:58 AM 31.3 °F - 31.1 °F 99% 30.26 in 1.2 mi East 2.3 mph - N/A   Overcast
5:59 AM 32.0 °F - 32.0 °F 100% 30.20 in 1.0 mi East 2.3 mph - N/A   Overcast
6:00 AM 32.0 °F - 32.0 °F 100% 30.20 in 0.8 mi ESE 2.3 mph - N/A   Overcast
6:02 AM 32.0 °F 28.7 °F 32.0 °F 100% 30.20 in 0.8 mi SSE 3.5 mph - N/A   Overcast
6:04 AM 32.0 °F 28.7 °F 32.0 °F 100% 30.20 in 0.5 mi South 3.5 mph - N/A Fog Light Freezing Fog
6:05 AM 32.0 °F 28.7 °F 32.0 °F 100% 30.20 in 0.5 mi South 3.5 mph - N/A Fog Light Freezing Fog
6:09 AM 32.0 °F 28.7 °F 32.0 °F 100% 30.20 in 0.5 mi SSE 3.5 mph - N/A Fog Light Freezing Fog
6:11 AM 32.0 °F 28.7 °F 32.0 °F 100% 30.20 in 0.8 mi SSE 3.5 mph - N/A   Overcast
6:12 AM 32.0 °F - 32.0 °F 100% 30.20 in 0.8 mi SSE 2.3 mph - N/A   Overcast
6:14 AM 32.0 °F 28.7 °F 32.0 °F 100% 30.21 in 1.0 mi South 3.5 mph - N/A   Overcast
6:15 AM 32.0 °F 28.7 °F 32.0 °F 100% 30.21 in 1.0 mi South 3.5 mph - N/A   Overcast
6:16 AM 32.0 °F 28.7 °F 32.0 °F 100% 30.21 in 1.2 mi South 3.5 mph - N/A   Overcast
6:17 AM 32.0 °F 28.7 °F 32.0 °F 100% 30.21 in 1.5 mi South 3.5 mph - N/A   Overcast
6:18 AM 32.0 °F 28.7 °F 32.0 °F 100% 30.21 in 1.8 mi South 3.5 mph - N/A   Overcast
6:20 AM 32.0 °F - 32.0 °F 100% 30.21 in 1.8 mi South 2.3 mph - N/A   Overcast
6:21 AM 32.0 °F - 32.0 °F 100% 30.21 in 1.8 mi South 2.3 mph - N/A Rain Light Freezing Rain
6:23 AM 32.0 °F - 32.0 °F 100% 30.21 in 1.5 mi South 2.3 mph - N/A Rain Light Freezing Rain
6:25 AM 32.0 °F - 32.0 °F 100% 30.21 in 1.2 mi South 2.3 mph - N/A Rain Light Freezing Rain
6:27 AM 32.0 °F 28.7 °F 32.0 °F 100% 30.21 in 1.2 mi SSE 3.5 mph - N/A Rain Light Freezing Rain
6:28 AM 32.0 °F 28.7 °F 32.0 °F 100% 30.21 in 1.5 mi SSE 3.5 mph - N/A Rain Light Freezing Rain
6:49 AM 32.0 °F 28.7 °F 32.0 °F 100% 30.26 in 0.5 mi South 3.5 mph - N/A Fog Light Freezing Fog
6:56 AM 32.0 °F 27.5 °F 32.0 °F 100% 30.21 in 0.2 mi SSW 4.6 mph - N/A Fog , Rain Light Freezing Rain
6:58 AM 31.3 °F 27.9 °F 31.1 °F 99% 30.27 in 0.2 mi South 3.5 mph - 0.00 in Fog , Rain Light Freezing Rain
7:00 AM 32.0 °F 28.7 °F 32.0 °F 100% 30.20 in 0.2 mi South 3.5 mph - N/A Fog Light Freezing Fog
7:07 AM 32.0 °F 27.5 °F 32.0 °F 100% 30.21 in 0.5 mi South 4.6 mph - N/A Fog Light Freezing Fog
7:25 AM 32.0 °F 26.4 °F 32.0 °F 100% 30.21 in 0.2 mi South 5.8 mph - N/A Fog Light Freezing Drizzle
7:27 AM 32.0 °F 25.6 °F 32.0 °F 100% 30.21 in 0.2 mi South 6.9 mph - N/A Fog Light Freezing Fog
7:32 AM 32.0 °F 24.8 °F 32.0 °F 100% 30.21 in 0.2 mi South 8.1 mph - N/A Fog Fog
7:40 AM 32.0 °F 28.7 °F 32.0 °F 100% 30.21 in 0.2 mi South 3.5 mph - N/A Fog Fog
7:51 AM 32.0 °F 27.5 °F 32.0 °F 100% 30.21 in 0.2 mi South 4.6 mph - N/A Fog Fog
7:57 AM 32.0 °F 26.4 °F 32.0 °F 100% 30.21 in 0.2 mi South 5.8 mph - N/A Fog Fog
7:58 AM 32.0 °F 26.4 °F 31.8 °F 99% 30.27 in 0.2 mi South 5.8 mph - 0.00 in Fog Fog
8:02 AM 32.0 °F 26.4 °F 32.0 °F 100% 30.21 in 0.2 mi SSE 5.8 mph - N/A Fog Fog
8:04 AM 32.0 °F 27.5 °F 32.0 °F 100% 30.21 in 0.2 mi South 4.6 mph - N/A Fog Fog
8:19 AM 32.0 °F 27.5 °F 32.0 °F 100% 30.22 in 0.2 mi South 4.6 mph - N/A Fog Fog
8:21 AM 32.0 °F 27.5 °F 32.0 °F 100% 30.22 in 0.2 mi South 4.6 mph - N/A Fog Fog
8:25 AM 32.0 °F 27.5 °F 32.0 °F 100% 30.22 in 0.2 mi SSE 4.6 mph - N/A Fog Fog
8:43 AM 33.8 °F 30.8 °F 33.8 °F 100% 30.23 in 0.5 mi NE 3.5 mph - N/A Fog Fog
8:56 AM 33.8 °F - 33.8 °F 100% 30.23 in 0.5 mi East 2.3 mph - N/A Fog Fog
8:58 AM 34.3 °F - 34.0 °F 99% 30.29 in 0.5 mi East 2.3 mph - N/A Fog Fog
9:01 AM 33.8 °F - 33.8 °F 100% 30.23 in 0.5 mi East 2.3 mph - N/A Fog Fog
9:03 AM 33.8 °F - 33.8 °F 100% 30.23 in 0.8 mi East 2.3 mph - N/A   Mist
9:05 AM 33.8 °F 30.8 °F 33.8 °F 100% 30.23 in 1.0 mi ESE 3.5 mph - N/A   Mist
9:09 AM 33.8 °F 30.8 °F 33.8 °F 100% 30.23 in 1.2 mi SE 3.5 mph - N/A   Overcast
9:15 AM 33.8 °F 28.6 °F 33.8 °F 100% 30.24 in 1.5 mi South 5.8 mph - N/A   Overcast
9:17 AM 33.8 °F 29.6 °F 33.8 °F 100% 30.23 in 1.8 mi South 4.6 mph - N/A   Overcast
9:19 AM 33.8 °F 29.6 °F 33.8 °F 100% 30.24 in 2.0 mi SSE 4.6 mph - N/A   Overcast
9:21 AM 35.6 °F 32.8 °F 33.8 °F 93% 30.24 in 3.0 mi ESE 3.5 mph - N/A   Overcast
9:39 AM 35.6 °F 29.9 °F 35.6 °F 100% 30.24 in 2.5 mi South 6.9 mph - N/A   Overcast
9:41 AM 35.6 °F 30.7 °F 35.6 °F 100% 30.24 in 2.0 mi SSE 5.8 mph - N/A   Overcast
9:43 AM 35.6 °F 31.7 °F 35.6 °F 100% 30.24 in 1.5 mi SSE 4.6 mph - N/A   Overcast
9:45 AM 35.6 °F 31.7 °F 35.6 °F 100% 30.24 in 1.2 mi South 4.6 mph - N/A   Overcast
9:46 AM 35.6 °F 31.7 °F 35.6 °F 100% 30.24 in 1.0 mi South 4.6 mph - N/A   Mist
9:48 AM 35.6 °F 31.7 °F 35.6 °F 100% 30.24 in 0.8 mi South 4.6 mph - N/A   Mist
9:52 AM 35.6 °F 30.7 °F 35.6 °F 100% 30.24 in 0.5 mi South 5.8 mph - N/A Fog Fog
9:54 AM 35.6 °F 30.7 °F 35.6 °F 100% 30.24 in 0.8 mi South 5.8 mph - N/A   Mist
9:55 AM 35.6 °F 30.7 °F 35.6 °F 100% 30.25 in 0.8 mi South 5.8 mph - N/A   Mist
9:57 AM 35.6 °F 30.7 °F 35.6 °F 100% 30.24 in 0.8 mi SSE 5.8 mph - N/A   Mist
9:58 AM 36.3 °F 31.6 °F 36.0 °F 99% 30.30 in 1.0 mi South 5.8 mph - N/A   Mist
10:00 AM 35.6 °F 30.7 °F 35.6 °F 100% 30.24 in 1.2 mi South 5.8 mph - N/A   Overcast
10:02 AM 35.6 °F 30.7 °F 35.6 °F 100% 30.24 in 1.8 mi South 5.8 mph - N/A   Overcast
10:04 AM 37.4 °F 32.8 °F 35.6 °F 93% 30.24 in 2.5 mi SSE 5.8 mph - N/A   Overcast
10:06 AM 37.4 °F 32.8 °F 35.6 °F 93% 30.24 in 3.0 mi South 5.8 mph - N/A   Overcast
10:21 AM 37.4 °F 33.8 °F 37.4 °F 100% 30.25 in 9.0 mi South 4.6 mph - N/A   Overcast
10:51 AM 39.2 °F - 39.2 °F 100% 30.24 in 10.0 mi South 2.3 mph - N/A   Overcast
10:58 AM 38.8 °F 36.5 °F 38.7 °F 99% 30.30 in 10.0 mi South 3.5 mph - N/A   Overcast
11:23 AM 41.0 °F 39.0 °F 41.0 °F 100% 30.24 in 10.0 mi East 3.5 mph - N/A   Mostly Cloudy
11:28 AM 41.0 °F 38.0 °F 41.0 °F 100% 30.23 in 10.0 mi ESE 4.6 mph - N/A   Overcast
11:48 AM 42.8 °F 38.6 °F 41.0 °F 93% 30.24 in 10.0 mi SE 6.9 mph - N/A   Overcast
11:58 AM 43.9 °F 40.5 °F 41.4 °F 91% 30.29 in 10.0 mi SE 5.8 mph - N/A   Overcast
12:03 PM 44.6 °F 42.2 °F 41.0 °F 87% 30.24 in 10.0 mi ESE 4.6 mph - N/A   Overcast
12:13 PM 44.6 °F 42.2 °F 41.0 °F 87% 30.23 in 10.0 mi South 4.6 mph - N/A   Overcast
12:18 PM 44.6 °F 41.4 °F 41.0 °F 87% 30.23 in 10.0 mi ESE 5.8 mph - N/A   Overcast
12:58 PM 47.8 °F - 41.0 °F 77% 30.27 in 10.0 mi South 4.6 mph - N/A   Mostly Cloudy
1:58 PM 49.3 °F - 39.7 °F 70% 30.25 in 10.0 mi SSE 4.6 mph - N/A   Overcast
2:58 PM 50.2 °F - 39.0 °F 66% 30.24 in 10.0 mi SSE 4.6 mph - N/A   Overcast
3:58 PM 51.4 °F - 38.5 °F 61% 30.22 in 10.0 mi SSE 5.8 mph - N/A   Mostly Cloudy
4:58 PM 50.0 °F - 38.7 °F 65% 30.20 in 10.0 mi South 4.6 mph - N/A   Mostly Cloudy
5:58 PM 46.6 °F - 38.1 °F 72% 30.19 in 10.0 mi ESE 4.6 mph - N/A   Overcast
6:58 PM 44.1 °F - 36.9 °F 76% 30.17 in 10.0 mi East 2.3 mph - N/A   Partly Cloudy
7:58 PM 39.4 °F - 34.9 °F 84% 30.16 in 10.0 mi NNE 2.3 mph - N/A   Clear
8:58 PM 37.0 °F 31.0 °F 34.2 °F 89% 30.13 in 10.0 mi ENE 8.1 mph - N/A   Clear
9:58 PM 36.9 °F 33.1 °F 34.5 °F 91% 30.09 in 10.0 mi ENE 4.6 mph - N/A   Mostly Cloudy
10:58 PM 36.5 °F 31.0 °F 34.7 °F 93% 30.06 in 10.0 mi ENE 6.9 mph - N/A   Mostly Cloudy
11:58 PM 36.9 °F 32.2 °F 36.0 °F 97% 30.02 in 10.0 mi NE 5.8 mph - N/A   Mostly Cloudy